TimePDT,TemperatureF,Dew PointF,Humidity,Sea Level PressureIn,VisibilityMPH,Wind Direction,Wind SpeedMPH,Gust SpeedMPH,PrecipitationIn,Events,Conditions,WindDirDegrees,DateUTC
12:54 AM,57.0,48.9,74,30.01,10.0,West,8.1,-,N/A,,Clear,260,2012-09-08 07:54:00
1:54 AM,55.9,48.9,77,30.01,10.0,Calm,Calm,-,N/A,,Clear,0,2012-09-08 08:54:00
2:54 AM,54.0,48.9,83,30.01,10.0,Calm,Calm,-,N/A,,Clear,0,2012-09-08 09:54:00
3:54 AM,53.1,48.9,86,30.01,10.0,Calm,Calm,-,N/A,,Clear,0,2012-09-08 10:54:00
4:54 AM,54.0,50.0,86,30.01,10.0,West,4.6,-,N/A,,Clear,260,2012-09-08 11:54:00
5:54 AM,52.0,48.0,86,30.01,10.0,Calm,Calm,-,N/A,,Clear,0,2012-09-08 12:54:00
6:54 AM,50.0,48.0,93,30.02,10.0,West,3.5,-,N/A,,Clear,260,2012-09-08 13:54:00
7:54 AM,55.9,51.1,84,30.04,10.0,WSW,4.6,-,N/A,,Clear,250,2012-09-08 14:54:00
8:54 AM,59.0,51.1,75,30.04,10.0,WSW,5.8,-,N/A,,Clear,240,2012-09-08 15:54:00
9:54 AM,63.0,51.1,65,30.04,10.0,SW,8.1,-,N/A,,Clear,230,2012-09-08 16:54:00
10:54 AM,66.9,50.0,54,30.03,10.0,SW,11.5,34.5,N/A,,Clear,230,2012-09-08 17:54:00
11:54 AM,72.0,51.1,48,30.01,10.0,WSW,10.4,-,N/A,,Clear,240,2012-09-08 18:54:00
1:54 PM,73.9,53.1,48,29.97,10.0,SSW,12.7,-,N/A,,Clear,210,2012-09-08 20:54:00
2:54 PM,75.9,53.1,45,29.94,10.0,SSW,13.8,-,N/A,,Clear,200,2012-09-08 21:54:00
3:54 PM,73.9,54.0,50,29.93,10.0,SSW,16.1,-,N/A,,Clear,200,2012-09-08 22:54:00
4:54 PM,75.9,46.9,36,29.92,10.0,WSW,15.0,-,N/A,,Clear,240,2012-09-08 23:54:00
5:54 PM,72.0,48.0,43,29.91,10.0,WSW,17.3,-,N/A,,Clear,240,2012-09-09 00:54:00
6:54 PM,66.9,48.9,52,29.91,10.0,WSW,13.8,-,N/A,,Clear,240,2012-09-09 01:54:00
8:54 PM,61.0,48.9,64,29.94,10.0,SW,11.5,-,N/A,,Clear,220,2012-09-09 03:54:00
9:54 PM,57.9,50.0,75,29.94,10.0,SW,9.2,-,N/A,,Clear,220,2012-09-09 04:54:00
10:54 PM,57.0,48.9,74,29.95,10.0,SW,8.1,-,N/A,,Clear,230,2012-09-09 05:54:00
11:54 PM,55.9,48.9,77,29.95,10.0,West,5.8,-,N/A,,Clear,260,2012-09-09 06:54:00